www.pogodaiklimat.ru

Погода и климат >> Архив погоды >> Россия >> Самарская область >> Сызрань


ПОГОДА в Сызрани

АРХИВ ПОГОДЫ в Сызрани

Время (UTC), дата Ветер
(напр.,м/с)
 
Видим.   Явления Облачность Т
(С)
Тd
(С)
f
(%)
Тe
(С)
Тes
(С)
Комфортность P
(гПа)
Po
(гПа)
Тmin
(С)
Tmax
(С)
R
(мм)
R24
(мм)
S
(см)
18 9.06 СВ 1 20 км ясно +15.6 +7.8 60 +16 +16 по сезону 1023.9 1011.4
21 9.06 З 2 20 км ясно +12.7 +8.0 73 +12 +12 по сезону 1023.9 1011.3
00 10.06 штиль 0 20 км ясно +9.8 +6.9 82 +9 +9 прохладно 1024.6 1011.9
03 10.06 З 1 20 км ясно +17.6 +8.3 54 +19 +22 тепло 1024.0 1011.7 +8.9
06 10.06 ЮЗ 1 20 км ясно +24.8 +7.0 32 +25 +39 комфорт 1023.5 1011.4
09 10.06 ЮВ 3 20 км ясно +27.4 +8.4 30 +27 +41 жарко 1022.5 1010.6
12 10.06 ЮВ 3 20 км ясно +28.2 +7.9 28 +28 +36 жарко 1021.0 1009.1
15 10.06 Ю 2 20 км ясно +27.7 +8.4 30 +28 +29 жарко 1020.1 1008.2 +28.6
18 10.06 ЮЗ 1 20 км ясно +21.7 +6.7 38 +22 +22 комфорт 1019.9 1007.8
21 10.06 З 1 20 км ясно +14.6 +9.8 73 +15 +15 по сезону 1020.5 1008.1
00 11.06 З 1 20 км ясно +13.9 +9.5 75 +14 +14 тепло 1020.2 1007.7
03 11.06 З 1 20 км ясно +20.3 +10.7 54 +23 +26 комфорт 1020.0 1007.8 +12.8
06 11.06 ЮЗ 1 20 км 3/0
[Ci fib]
+28.4 +11.8 36 +29 +42 жарко 1019.6 1007.7
09 11.06 З 2 20 км 4/1 1000 м
[Cu med, cong Ci fib]
+31.4 +5.4 19 +29 +43 жарко 1018.6 1006.8
12 11.06 З 2 20 км 6/4 600 м
[Cb calv Ci fib]
+32.8 +3.6 16 +30 +36 жарко 1016.9 1005.2
15 11.06 СВ 1 20 км 8/6 600 м
[Cb calv Ci fib]
+27.8 +10.1 33 +28 +29 жарко 1016.5 1004.6 +33.4
18 11.06 СЗ 1 20 км 10/0
[Ci fib]
+22.0 +15.0 64 +25 +25 комфорт 1017.2 1005.1
21 11.06 С 2 20 км 5/0
[Ci fib]
+20.2 +13.8 67 +23 +23 комфорт 1017.4 1005.3
00 12.06 СЗ 1 20 км 8/4 600 м
[Sc Ac trans Ci fib]
+19.3 +11.3 60 +21 +21 комфорт 1017.6 1005.4
03 12.06 штиль 0 20 км 8/5 600 м
[Sc Ci fib]
+21.9 +12.0 53 +24 +26 комфорт 1017.3 1005.3 +17.0
06 12.06 СЗ 1 20 км 1/0
[Ac cast]
+26.6 +8.6 32 +27 +40 жарко 1016.3 1004.4
09 12.06 З 2 20 км 3/0
[Ac cast]
+28.7 +7.6 26 +28 +41 жарко 1015.2 1003.4
12 12.06 С 3 20 км 4/4 1000 м
[Cu hum]
+29.6 +9.1 28 +29 +34 жарко 1013.3 1001.6
15 12.06 С 2 20 км 6/0
[Ci fib]
+28.0 +10.1 33 +28 +30 жарко 1012.5 1000.7 +30.1
18 12.06 С 1 20 км 8/0
[Ac trans Ci fib]
+22.0 +11.2 50 +24 +24 комфорт 1013.1 1001.1
21 12.06 С 3 19 км 8/0
[Ci fib]
+20.2 +8.7 48 +22 +22 комфорт 1014.9 1002.7
00 13.06 С 3 10 км слаб. ливневой дождь 10/10 900 м
[Cb calv]
+16.8 +9.1 60 +17 +17 тепло 1016.0 1003.7
03 13.06 СВ 4
{11}
20 км в посл. час ливневой дождь 9/8 800 м
[Sc Ac trans]
+12.1 +3.9 57 +10 +11 холодно 1018.5 1006.0 +11.9 0.6
06 13.06 С 5
{12}
20 км {ливн. осадки} 3/0
[Ac cast]
+14.2 +2.1 44 +13 +18 очень
холодно
1020.6 1008.1 +11.8
09 13.06 С 5-10
{13}
20 км 4/0
[Ac trans Ci fib]
+15.8 +1.1 37 +15 +22 очень
холодно
1021.3 1008.9
12 13.06 С 4
{14}
20 км ясно +17.5 +0.8 32 +17 +24 очень
холодно
1021.3 1009.0
15 13.06 С 3
{11}
20 км ясно +17.2 -0.6 30 +17 +19 прохладно 1021.2 1008.8 +17.6
18 13.06 СЗ 1 20 км ясно +11.0 +2.7 57 +11 +11 холодно 1022.2 1009.6
21 13.06 СЗ 2 20 км ясно +9.1 +1.4 59 +8 +8 холодно 1022.7 1010.0
00 14.06 СЗ 2 20 км ясно +7.4 +1.7 67 +6 +6 холодно 1023.5 1010.7
03 14.06 З 1 20 км 8/0
[Ci fib]
+11.8 +3.6 57 +12 +15 прохладно 1023.4 1010.8 +6.7
06 14.06 СЗ 2 20 км 8/0
[Ci fib]
+17.5 -0.7 29 +18 +28 прохладно 1022.5 1010.1
09 14.06 С 3 20 км 10/0
[Ac trans Ci fib]
+19.9 -1.1 24 +20 +30 прохладно 1020.2 1007.9
12 14.06 З 3 20 км 9/3 600 м
[Sc Ac und]
+21.2 -2.3 21 +21 +23 комфорт 1017.5 1005.3
15 14.06 С 1 20 км 10/10 800 м
[Cb calv]
+18.5 +2.1 33 +20 +20 по сезону 1015.4 1003.2 +21.9
18 14.06 СВ 2 20 км в посл. час ливневой дождь 10/10 800 м
[Cb calv]
+13.2 +6.8 65 +13 +13 холодно 1015.6 1003.2
21 14.06 штиль 0 10 км слаб. ливневой дождь 10/10 800 м
[Cb calv]
+11.2 +8.9 86 +11 +11 прохладно 1015.0 1002.5
00 15.06 штиль 0 20 км {ливн. осадки} 10/10 800 м
[Cb calv]
+11.2 +8.7 85 +11 +11 по сезону 1014.2 1001.7
03 15.06 С 2 20 км 10/10 840 м
[Cb calv]
+12.5 +8.7 78 +12 +12 холодно 1014.2 1001.7 +11.1 0.3
06 15.06 В 2 20 км 10/10 720 м
[Cb calv Ci fib]
+14.5 +6.8 60 +14 +14 очень
холодно
1014.8 1002.4
09 15.06 ЮВ 1 20 км 9/9 700 м
[Cb calv]
+17.1 +5.1 45 +18 +20 холодно 1014.3 1002.0
12 15.06 С 1 20 км 8/8 800 м
[Cb calv Ac trans Ci fib]
+18.8 +4.2 38 +20 +23 холодно 1013.6 1001.4
15 15.06 В 2 20 км 8/8 720 м
[Sc diur, vesp Ci fib]
+17.8 +4.8 42 +18 +19 прохладно 1012.6 1000.4 +20.4
18 15.06 В 1 20 км 3/3 600 м
[Sc]
+10.8 +5.3 69 +11 +11 очень
холодно
1013.1 1000.6
21 15.06 СЗ 1 19 км 6/1 1000 м
[Sc Ac trans Ci fib]
+7.9 +4.6 80 +7 +7 очень
холодно
1013.0 1000.3
00 16.06 СЗ 1 20 км 9/9 600 м
[Sc]
+9.8 +5.9 77 +9 +9 прохладно 1012.4 999.8
03 16.06 З 1 20 км 8/5 700 м
[Sc Ac trans Ci fib]
+13.1 +7.0 66 +13 +14 прохладно 1012.0 999.6 +7.6
06 16.06 СЗ 2 20 км 9/8 900 м
[Cu hum Cc]
+19.8 +5.4 39 +21 +23 комфорт 1011.4 999.3
09 16.06 СЗ 1 20 км 9/9 870 м
[Cu hum]
+20.5 +4.8 36 +22 +24 комфорт 1010.7 998.6
12 16.06 СЗ 2 20 км 10/0 900 м
[Cu Sc Ac trans Ci fib]
+21.4 +3.8 31 +22 +27 комфорт 1010.1 998.1
15 16.06 С 2 20 км 6/0
[Ac trans]
+20.6 +4.1 34 +22 +23 комфорт 1010.2 998.2 +22.2

 

Местоположение метеостанции Сызрань (Самарская область, Россия): широта 53.18 долгота 48.40 высота над уровнем моря 103 м.

В архиве по умолчанию представлена погода в Сызрани за последнюю неделю. Архивные данные за месяц целиком и за предыдущие месяцы, начиная с января 2011 года, Вы можете получить, выбрав интересующий диапазон дат из раскрывающегося списка и нажав кнопку "Ввод!".


*Определитесь, кто Вы:
робот инопланетянин человек

Внимание! Время в таблицах - всемирное. Для получения местного времени необходимо прибавить поправку, которая равна 4 ч.

Смотрите также архив погоды в соседних городах и на ближайших метеорологических станциях:

Погода в Приволжье (Самарская область, Россия) (37 км)
Погода в Новодевичьем (Самарская область, Россия) (55 км)
Погода в Канадее (Ульяновская область, Россия) (59 км)
Погода в Тольятти (Самарская область, Россия) (71 км)
Погода в Безенчуке (Самарская область, Россия) (72 км)
Погода в Тольятти (дамба) (Самарская область, Россия) (78 км)
Погода в Хвалынске (Саратовская область, Россия) (79 км)
Погода в Чапаевске (Самарская область, Россия) (91 км)
Погода в Сенгилее (Ульяновская область, Россия) (92 км)
Погода в Аглосе (Самарская область, Россия) (116 км)

Пояснения к столбцам:

Ветер - указаны скорость ветра в м/с - средняя за 10 мин, порывы в срок и между сроками (в фигурных скобках) и направление, откуда дует ветер: С - северный, СВ - северо-восточный, В - восточный, ЮВ - юго-восточный, Ю - южный, ЮЗ - юго-западный, З - западный, СЗ - северо-западный.
Видимость - горизонтальная дальность видимости в метрах или километрах. При видимости от 1 до 10 км при отсутствии осадков обычно наблюдается дымка, при ухудшении видимости до 1 км и менее - туман. В сухую погоду видимость может ухудшаться дымом, пылью или мглою.
Явления - указаны атмосферные явления, наблюдавшиеся в срок или в последний час перед сроком; фигурными скобками обозначены явления, наблюдавшиеся между сроками (за 1-3 часа до срока); квадратными скобками обозначены град или гололедные отложения с указанием их диаметра в мм.
Облачность - указаны через наклонную черту общая и нижняя облачность в баллах и высота нижней границы облаков в метрах; квадратными скобками обозначены формы облаков: Ci - перистые, Cs - перисто-слоистые, Cc - перисто-кучевые, Ac - высококучевые, As - высокослоистые, Sc - слоисто-кучевые, Ns - слоисто-дождевые, Cu - кучевые, Cb - кучево-дождевые. Подробнее классификацию облаков см. в Атласе облаков (PDF).
T - Температура воздуха - температура, измеренная на высоте 2 м над землей.
Td - Температура точки росы - температура, при понижении до которой содержащийся в воздухе водяной пар достигнет насыщения.
f - Относительная влажность воздуха - влажноcть воздуха, измеренная на высоте 2 м над землей.
Te - Эффективная температура - температура, которую ощущает одетый по сезону человек в тени. Характеристика душности погоды. При расчете учитывается влияние влажности воздуха и скорости ветра на теплоощущения человека.
Tes - Эффективная температура на солнце - температура, которую ощущает человек, с поправкой на солнечный нагрев. Характеристика знойности погоды. Зависит от высоты солнца над горизонтом, облачности и скорости ветра. Ночью, в пасмурную погоду, а также при ветре 12 м/с и более поправка равна нулю.
P - Атмосферное давление - приведенное к уровню моря атмосферное давление.
Po - Атмосферное давление - измеренное на уровне метеостанции атмосферное давление.
Tmin - Минимальная температура - минимум температуры воздуха на высоте 2 м над землей.
Tmax - Максимальная температура - максимум температуры воздуха на высоте 2 м над землей.
R - Количество осадков - Количество выпавших осадков за период времени, мм. При наведении курсора мыши на число - период времени, за который выпало указанное количество осадков.
R24 - Количество осадков - Количество выпавших осадков за 24 часа, мм.
S - Снежный покров - Высота снежного покрова, см. При наведении курсора мыши на число - состояние снежного покрова и степень покрытия местности в баллах.